Time,TemperatureF,DewpointF,PressureIn,WindDirection,WindDirectionDegrees,WindSpeedMPH,WindSpeedGustMPH,Humidity,HourlyPrecipIn,Conditions,Clouds,dailyrainin,SolarRadiationWatts/m^2,SoftwareType,DateUTC
2013-02-08 00:11:00,37.7,36.0,29.98,ENE,61,0.0,0.0,94,0.00,,,0.00,0,weatherlink.com 1.10,2013-02-08 08:11:00,
2013-02-08 00:26:00,37.4,36.0,29.98,ENE,61,0.0,0.0,94,0.00,,,0.00,0,weatherlink.com 1.10,2013-02-08 08:26:00,
2013-02-08 00:41:00,37.3,36.0,29.98,ENE,61,0.0,0.0,94,0.00,,,0.00,0,weatherlink.com 1.10,2013-02-08 08:41:00,
2013-02-08 00:56:00,37.1,36.0,29.97,ENE,61,0.0,0.0,95,0.00,,,0.00,0,weatherlink.com 1.10,2013-02-08 08:56:00,
2013-02-08 01:11:00,37.5,36.0,29.97,NE,51,0.0,2.0,95,0.00,,,0.00,0,weatherlink.com 1.10,2013-02-08 09:11:00,
2013-02-08 01:26:00,37.4,36.0,29.97,NE,51,0.0,3.0,94,0.00,,,0.00,0,weatherlink.com 1.10,2013-02-08 09:26:00,
2013-02-08 01:42:00,37.4,36.0,29.96,NE,51,0.0,2.0,95,0.00,,,0.00,0,weatherlink.com 1.10,2013-02-08 09:42:00,
2013-02-08 01:57:00,37.5,36.0,29.96,NE,51,0.0,1.0,94,0.00,,,0.00,0,weatherlink.com 1.10,2013-02-08 09:57:00,
2013-02-08 02:11:00,37.7,36.0,29.95,NE,51,0.0,1.0,95,0.00,,,0.00,0,weatherlink.com 1.10,2013-02-08 10:11:00,
2013-02-08 02:26:00,37.7,36.0,29.95,NE,51,0.0,1.0,95,0.00,,,0.00,0,weatherlink.com 1.10,2013-02-08 10:26:00,
2013-02-08 02:41:00,37.4,36.0,29.95,NE,51,0.0,1.0,94,0.00,,,0.00,0,weatherlink.com 1.10,2013-02-08 10:41:00,
2013-02-08 02:56:00,37.7,36.0,29.95,East,79,0.0,1.0,95,0.00,,,0.00,0,weatherlink.com 1.10,2013-02-08 10:56:00,
2013-02-08 03:11:00,37.6,36.0,29.94,ENE,78,0.0,0.0,95,0.00,,,0.00,0,weatherlink.com 1.10,2013-02-08 11:11:00,
2013-02-08 03:26:00,37.9,37.0,29.94,NE,56,2.0,2.0,95,0.00,,,0.00,0,weatherlink.com 1.10,2013-02-08 11:26:00,
2013-02-08 03:41:00,38.0,37.0,29.94,NE,56,0.0,2.0,95,0.00,,,0.00,0,weatherlink.com 1.10,2013-02-08 11:41:00,
2013-02-08 03:57:00,37.5,36.0,29.94,NE,56,0.0,0.0,95,0.01,,,0.01,0,weatherlink.com 1.10,2013-02-08 11:57:00,
2013-02-08 04:11:00,37.1,36.0,29.94,NE,56,0.0,1.0,95,0.01,,,0.01,0,weatherlink.com 1.10,2013-02-08 12:11:00,
2013-02-08 04:26:00,36.8,36.0,29.95,NE,56,1.0,0.0,95,0.01,,,0.01,0,weatherlink.com 1.10,2013-02-08 12:26:00,
2013-02-08 04:41:00,36.9,36.0,29.95,NE,56,0.0,1.0,95,0.01,,,0.01,0,weatherlink.com 1.10,2013-02-08 12:41:00,
2013-02-08 04:56:00,36.9,36.0,29.95,NE,56,1.0,2.0,95,0.00,,,0.01,0,weatherlink.com 1.10,2013-02-08 12:56:00,
2013-02-08 05:11:00,37.0,36.0,29.95,NE,34,3.0,4.0,96,0.00,,,0.01,0,weatherlink.com 1.10,2013-02-08 13:11:00,
2013-02-08 05:26:00,37.1,36.0,29.95,ENE,76,3.0,4.0,96,0.00,,,0.01,0,weatherlink.com 1.10,2013-02-08 13:26:00,
2013-02-08 05:42:00,37.4,36.0,29.96,NNE,26,0.0,3.0,96,0.00,,,0.01,0,weatherlink.com 1.10,2013-02-08 13:42:00,
2013-02-08 06:12:00,36.7,35.0,29.97,ENE,78,2.0,4.0,95,0.00,,,0.01,0,weatherlink.com 1.10,2013-02-08 14:12:00,
2013-02-08 06:27:00,36.4,35.0,29.97,ENE,67,0.0,1.0,95,0.00,,,0.01,0,weatherlink.com 1.10,2013-02-08 14:27:00,
2013-02-08 06:42:00,35.9,35.0,29.98,ENE,67,0.0,1.0,95,0.00,,,0.01,0,weatherlink.com 1.10,2013-02-08 14:42:00,
2013-02-08 06:57:00,35.6,34.0,29.98,ENE,67,0.0,1.0,95,0.00,,,0.01,0,weatherlink.com 1.10,2013-02-08 14:57:00,
2013-02-08 07:12:00,35.5,35.0,29.98,ENE,67,0.0,1.0,96,0.00,,,0.01,0,weatherlink.com 1.10,2013-02-08 15:12:00,
2013-02-08 07:27:00,35.5,35.0,29.99,ENE,67,0.0,1.0,96,0.00,,,0.01,9,weatherlink.com 1.10,2013-02-08 15:27:00,
2013-02-08 07:42:00,35.7,35.0,29.99,ENE,67,0.0,1.0,96,0.00,,,0.01,16,weatherlink.com 1.10,2013-02-08 15:42:00,
2013-02-08 07:57:00,36.1,35.0,30.00,ENE,74,1.0,5.0,96,0.00,,,0.01,100,weatherlink.com 1.10,2013-02-08 15:57:00,
2013-02-08 08:12:00,36.8,36.0,30.00,ENE,63,0.0,0.0,96,0.00,,,0.01,162,weatherlink.com 1.10,2013-02-08 16:12:00,
2013-02-08 08:27:00,37.6,37.0,30.00,ENE,63,0.0,2.0,96,0.00,,,0.01,137,weatherlink.com 1.10,2013-02-08 16:27:00,
2013-02-08 08:42:00,38.2,37.0,30.00,WNW,302,0.0,4.0,95,0.00,,,0.01,251,weatherlink.com 1.10,2013-02-08 16:42:00,
2013-02-08 08:57:00,39.6,38.0,30.01,NE,38,0.0,4.0,93,0.00,,,0.01,318,weatherlink.com 1.10,2013-02-08 16:57:00,
2013-02-08 09:12:00,40.9,37.0,30.01,ESE,108,4.0,6.0,87,0.00,,,0.01,334,weatherlink.com 1.10,2013-02-08 17:12:00,
2013-02-08 09:27:00,42.1,37.0,30.01,ENE,70,4.0,9.0,83,0.00,,,0.01,378,weatherlink.com 1.10,2013-02-08 17:27:00,
2013-02-08 09:43:00,43.0,38.0,30.01,NNE,13,0.0,6.0,82,0.00,,,0.01,422,weatherlink.com 1.10,2013-02-08 17:43:00,
2013-02-08 09:57:00,43.8,38.0,30.02,NE,37,3.0,8.0,79,0.00,,,0.01,473,weatherlink.com 1.10,2013-02-08 17:57:00,
2013-02-08 10:13:00,44.6,38.0,30.01,NNE,31,5.0,8.0,77,0.00,,,0.01,496,weatherlink.com 1.10,2013-02-08 18:13:00,
2013-02-08 10:28:00,45.5,38.0,30.01,NNE,24,3.0,6.0,76,0.00,,,0.01,506,weatherlink.com 1.10,2013-02-08 18:28:00,
2013-02-08 10:43:00,47.0,39.0,30.01,NNE,13,6.0,7.0,74,0.00,,,0.01,371,weatherlink.com 1.10,2013-02-08 18:43:00,
2013-02-08 10:57:00,47.1,39.0,30.01,ENE,72,2.0,5.0,74,0.00,,,0.01,171,weatherlink.com 1.10,2013-02-08 18:57:00,
2013-02-08 11:13:00,47.5,39.0,30.00,ENE,61,4.0,9.0,72,0.00,,,0.01,626,weatherlink.com 1.10,2013-02-08 19:13:00,
2013-02-08 11:28:00,48.4,39.0,30.00,North,11,1.0,10.0,71,0.00,,,0.01,679,weatherlink.com 1.10,2013-02-08 19:28:00,
2013-02-08 11:43:00,50.1,39.0,29.99,NNE,33,3.0,9.0,67,0.00,,,0.01,642,weatherlink.com 1.10,2013-02-08 19:43:00,
2013-02-08 11:58:00,51.0,40.0,29.99,NE,46,6.0,11.0,65,0.00,,,0.01,624,weatherlink.com 1.10,2013-02-08 19:58:00,
2013-02-08 12:13:00,50.9,39.0,29.98,NNW,338,5.0,10.0,63,0.00,,,0.01,624,weatherlink.com 1.10,2013-02-08 20:13:00,
2013-02-08 12:28:00,51.9,38.0,29.98,North,351,2.0,9.0,60,0.00,,,0.01,619,weatherlink.com 1.10,2013-02-08 20:28:00,
2013-02-08 12:43:00,52.8,39.0,29.97,ENE,72,3.0,9.0,59,0.00,,,0.01,613,weatherlink.com 1.10,2013-02-08 20:43:00,
2013-02-08 12:58:00,53.5,37.0,29.97,North,5,3.0,12.0,55,0.00,,,0.01,605,weatherlink.com 1.10,2013-02-08 20:58:00,
2013-02-08 13:13:00,54.2,36.0,29.96,ENE,78,5.0,12.0,51,0.00,,,0.01,592,weatherlink.com 1.10,2013-02-08 21:13:00,
2013-02-08 13:28:00,55.1,37.0,29.96,North,5,6.0,9.0,51,0.00,,,0.01,577,weatherlink.com 1.10,2013-02-08 21:28:00,
2013-02-08 13:43:00,54.9,41.0,29.96,WNW,302,6.0,12.0,61,0.00,,,0.01,550,weatherlink.com 1.10,2013-02-08 21:43:00,
2013-02-08 13:58:00,54.1,40.0,29.95,NW,308,8.0,13.0,60,0.00,,,0.01,457,weatherlink.com 1.10,2013-02-08 21:58:00,
2013-02-08 14:13:00,53.4,42.0,29.95,WNW,302,4.0,13.0,65,0.00,,,0.01,60,weatherlink.com 1.10,2013-02-08 22:13:00,
2013-02-08 14:28:00,53.7,41.0,29.95,NW,311,10.0,12.0,62,0.00,,,0.01,39,weatherlink.com 1.10,2013-02-08 22:28:00,
2013-02-08 14:43:00,53.7,40.0,29.94,NW,315,7.0,15.0,61,0.00,,,0.01,37,weatherlink.com 1.10,2013-02-08 22:43:00,
2013-02-08 14:58:00,54.0,41.0,29.94,North,355,11.0,13.0,61,0.00,,,0.01,37,weatherlink.com 1.10,2013-02-08 22:58:00,
2013-02-08 15:13:00,54.0,41.0,29.94,NW,307,8.0,13.0,61,0.00,,,0.01,40,weatherlink.com 1.10,2013-02-08 23:13:00,
2013-02-08 15:28:00,54.1,42.0,29.93,WNW,294,6.0,14.0,64,0.00,,,0.01,209,weatherlink.com 1.10,2013-02-08 23:28:00,
2013-02-08 15:43:00,55.0,42.0,29.93,NNW,331,4.0,11.0,62,0.00,,,0.01,274,weatherlink.com 1.10,2013-02-08 23:43:00,
2013-02-08 15:58:00,55.3,41.0,29.93,West,273,5.0,12.0,59,0.00,,,0.01,230,weatherlink.com 1.10,2013-02-08 23:58:00,
2013-02-08 16:13:00,54.8,41.0,29.93,NW,304,7.0,13.0,60,0.00,,,0.01,183,weatherlink.com 1.10,2013-02-09 00:13:00,
2013-02-08 16:28:00,54.7,41.0,29.93,NW,305,3.0,11.0,61,0.00,,,0.01,128,weatherlink.com 1.10,2013-02-09 00:28:00,
2013-02-08 16:43:00,54.8,42.0,29.93,NW,312,3.0,8.0,62,0.00,,,0.01,28,weatherlink.com 1.10,2013-02-09 00:43:00,
2013-02-08 16:58:00,54.7,42.0,29.93,NW,306,3.0,6.0,63,0.00,,,0.01,40,weatherlink.com 1.10,2013-02-09 00:58:00,
2013-02-08 17:13:00,53.9,42.0,29.93,NW,306,2.0,7.0,65,0.00,,,0.01,18,weatherlink.com 1.10,2013-02-09 01:13:00,
2013-02-08 17:28:00,53.3,42.0,29.93,NNW,327,5.0,5.0,65,0.00,,,0.01,11,weatherlink.com 1.10,2013-02-09 01:28:00,
2013-02-08 17:43:00,52.3,41.0,29.94,NW,325,2.0,5.0,66,0.00,,,0.01,0,weatherlink.com 1.10,2013-02-09 01:43:00,
2013-02-08 17:58:00,51.6,41.0,29.94,NNW,329,0.0,3.0,68,0.00,,,0.01,0,weatherlink.com 1.10,2013-02-09 01:58:00,
2013-02-08 18:13:00,50.9,41.0,29.94,WNW,301,2.0,3.0,69,0.00,,,0.01,0,weatherlink.com 1.10,2013-02-09 02:13:00,
2013-02-08 18:28:00,49.5,40.0,29.95,WNW,285,0.0,4.0,70,0.00,,,0.01,0,weatherlink.com 1.10,2013-02-09 02:28:00,
2013-02-08 18:44:00,48.8,40.0,29.95,WNW,302,2.0,5.0,72,0.00,,,0.01,0,weatherlink.com 1.10,2013-02-09 02:44:00,
2013-02-08 18:58:00,48.0,40.0,29.96,NW,309,0.0,3.0,74,0.00,,,0.01,0,weatherlink.com 1.10,2013-02-09 02:58:00,
2013-02-08 19:14:00,47.4,40.0,29.96,NW,309,0.0,2.0,75,0.00,,,0.01,0,weatherlink.com 1.10,2013-02-09 03:14:00,
2013-02-08 19:28:00,46.7,40.0,29.97,NNE,26,0.0,2.0,76,0.00,,,0.01,0,weatherlink.com 1.10,2013-02-09 03:28:00,
2013-02-08 19:43:00,45.4,39.0,29.97,NNE,26,0.0,1.0,79,0.00,,,0.01,0,weatherlink.com 1.10,2013-02-09 03:43:00,
2013-02-08 19:58:00,45.2,39.0,29.97,NW,304,2.0,3.0,79,0.00,,,0.01,0,weatherlink.com 1.10,2013-02-09 03:58:00,
2013-02-08 20:14:00,44.3,38.0,29.97,WNW,301,0.0,4.0,79,0.00,,,0.01,0,weatherlink.com 1.10,2013-02-09 04:14:00,
2013-02-08 20:28:00,43.4,38.0,29.97,WNW,302,0.0,3.0,80,0.00,,,0.01,0,weatherlink.com 1.10,2013-02-09 04:28:00,
2013-02-08 20:43:00,43.1,37.0,29.97,WNW,294,0.0,3.0,79,0.00,,,0.01,0,weatherlink.com 1.10,2013-02-09 04:43:00,
2013-02-08 20:58:00,41.8,36.0,29.98,SE,137,0.0,1.0,81,0.00,,,0.01,0,weatherlink.com 1.10,2013-02-09 04:58:00,
2013-02-08 21:14:00,44.2,37.0,29.98,NW,304,1.0,5.0,76,0.00,,,0.01,0,weatherlink.com 1.10,2013-02-09 05:14:00,
2013-02-08 21:28:00,45.2,37.0,29.99,WNW,300,0.0,1.0,74,0.00,,,0.01,0,weatherlink.com 1.10,2013-02-09 05:28:00,
2013-02-08 21:44:00,44.7,37.0,29.98,NNW,337,2.0,3.0,74,0.00,,,0.01,0,weatherlink.com 1.10,2013-02-09 05:44:00,
2013-02-08 21:58:00,43.7,36.0,29.98,North,360,2.0,2.0,75,0.00,,,0.01,0,weatherlink.com 1.10,2013-02-09 05:58:00,
2013-02-08 22:13:00,44.2,37.0,29.98,NE,34,2.0,5.0,75,0.00,,,0.01,0,weatherlink.com 1.10,2013-02-09 06:13:00,
2013-02-08 22:29:00,46.0,37.0,29.98,NE,42,5.0,10.0,71,0.00,,,0.01,0,weatherlink.com 1.10,2013-02-09 06:29:00,
2013-02-08 22:44:00,45.7,37.0,29.98,ENE,67,7.0,8.0,71,0.00,,,0.01,0,weatherlink.com 1.10,2013-02-09 06:44:00,
2013-02-08 22:58:00,45.6,37.0,29.98,NE,44,1.0,6.0,71,0.00,,,0.01,0,weatherlink.com 1.10,2013-02-09 06:58:00,
2013-02-08 23:13:00,42.8,36.0,29.98,WNW,287,1.0,6.0,76,0.00,,,0.01,0,weatherlink.com 1.10,2013-02-09 07:13:00,
2013-02-08 23:29:00,43.2,36.0,29.99,NNE,21,1.0,4.0,76,0.00,,,0.01,0,weatherlink.com 1.10,2013-02-09 07:29:00,
2013-02-08 23:43:00,44.0,36.0,29.99,NW,307,2.0,6.0,73,0.00,,,0.01,0,weatherlink.com 1.10,2013-02-09 07:43:00,
2013-02-08 23:58:00,43.0,36.0,30.00,WNW,302,0.0,5.0,75,0.00,,,0.01,0,weatherlink.com 1.10,2013-02-09 07:58:00,